Location: Pompeys Pillar
(45.9913°N, 107.9528°W)
Time: 05:29:59
(UTC+00:00)

Tiros 1 - Pass Details

Date: 04 June 2022
Orbit: 629 x 663 km, 48.4° (Epoch: 30 June)

Event Time Altitude Azimuth Distance (km) Brightness Sun altitude
Rises 07:45:12 0° 280° (W) 2,915 10.5 -21.1°
Reaches altitude 10° 07:47:32 10° 283° (WNW) 2,009 9.7 -21.0°
Maximum altitude 07:52:07 66° 6° (N) 690 7.4 -20.9°
Drops below altitude 10° 07:56:45 10° 89° (E) 2,020 9.8 -20.8°
Sets 07:59:06 0° 92° (E) 2,932 10.7 -20.7°
